Location: Montbazon
(47.2835°N, 0.6999°E)
Time: 07:22:18
(UTC+00:00)

Cosmos 2322 Rocket - Pass Details

Date: 08 November 2025
Orbit: 830 x 851 km, 71.0° (Epoch: 12 December)

Event Time Altitude Azimuth Distance (km) Brightness Sun altitude
Exits shadow 03:59:39 31° 358° (N) 1,463 3.4 -29.2°
Drops below altitude 10° 04:02:48 10° 18° (NNE) 2,481 4.9 -28.7°
Sets 04:05:22 0° 25° (NNE) 3,423 5.8 -28.3°
